Left ArrowRight Arrow

34.74481, -87.66753

Hourly Observations for August 16, 2016

Temp ( °F °C ) Dew Point ( °F °C ) Humidity (%) Winds ( mph kmh ) Pressure ( in mb ) Visibility ( mi km ) Precip ( " mm )
12:53 am 00:53 Clear 76 24.4 70 21.1 82 82 S 6 9 30.12 1020 10 16 0.00 0.00
1:53 am 01:53 Clear 75 23.9 70 21.1 84 84 S 6 9 30.11 1020 10 16 0.00 0.00
2:53 am 02:53 Clear 75 23.9 71 21.7 88 88 S 5 7 30.11 1020 10 16 0.00 0.00
3:53 am 03:53 Clear 75 23.9 71 21.7 88 88 SSE 5 7 30.11 1020 10 16 0.00 0.00
4:53 am 04:53 Clear 74 23.3 70 21.1 88 88 SE 5 7 30.13 1020 10 16 0.00 0.00
5:53 am 05:53 Clear 72 22.2 70 21.1 94 94 Calm 30.14 1021 10 16 0.00 0.00
6:53 am 06:53 Sunny 75 23.9 71 21.7 88 88 S 3 6 30.15 1021 10 16 0.00 0.00
7:53 am 07:53 Sunny 78 25.6 72 22.2 82 82 S 5 7 30.16 1022 10 16 0.00 0.00
8:53 am 08:53 Sunny 81 27.2 73 22.8 77 77 SSW 7 11 30.17 1022 10 16 0.00 0.00
9:53 am 09:53 Mostly Sunny 84 28.9 73 22.8 70 70 S 6 9 30.16 1022 10 16 0.00 0.00
10:53 am 10:53 Sunny 86 30 73 22.8 65 65 S 5 7 30.17 1022 10 16 0.00 0.00
11:53 am 11:53 Mostly Cloudy 86 30 72 22.2 63 63 WSW 6 9 30.16 1021 10 16 0.00 0.00
12:53 pm 12:53 Mostly Sunny 89 31.7 72 22.2 57 57 SSW 9 15 30.14 1021 10 16 0.00 0.00
1:53 pm 13:53 Mostly Sunny 91 32.8 70 21.1 50 50 SSW 8 13 30.12 1020 10 16 0.00 0.00
2:53 pm 14:53 Mostly Sunny 91 32.8 71 21.7 52 52 SSW 6 9 30.09 1019 10 16 0.00 0.00
3:53 pm 15:53 Sunny 92 33.3 69 20.6 47 47 SSW 10 17 30.09 1019 10 16 0.00 0.00
4:53 pm 16:53 Sunny 91 32.8 67 19.4 45 45 SSW 9 15 30.09 1019 10 16 0.00 0.00
5:53 pm 17:53 Sunny 88 31.1 68 20 52 52 SSW 6 9 30.09 1019 10 16 0.00 0.00
6:53 pm 18:53 Sunny 86 30 71 21.7 61 61 WSW 3 6 30.09 1019 10 16 0.00 0.00
7:53 pm 19:53 Clear 83 28.3 72 22.2 70 70 SSW 3 6 30.12 1020 10 16 0.00 0.00
8:53 pm 20:53 Clear 78 25.6 73 22.8 85 85 SSE 3 6 30.13 1020 10 16 0.00 0.00
9:53 pm 21:53 Clear 79 26.1 72 22.2 79 79 SSW 5 7 30.14 1021 10 16 0.00 0.00
10:53 pm 22:53 Mostly Clear 79 26.1 71 21.7 77 77 WSW 8 13 30.16 1021 10 16 0.00 0.00
11:53 pm 23:53 Clear 78 25.6 71 21.7 79 79 SW 6 9 30.18 1022 10 16 0.00 0.00

Powered by Vaisala Xweather